Time,TemperatureF,DewpointF,PressureIn,WindDirection,WindDirectionDegrees,WindSpeedMPH,WindSpeedGustMPH,Humidity,HourlyPrecipIn,Conditions,Clouds,dailyrainin,SoftwareType,DateUTC
2013-03-02 00:01:00,40.0,29.0,30.27,NNW,343,6.0,14.0,65,0.00,,,0.00,,2013-03-02 06:01:00,
2013-03-02 00:11:00,40.0,29.0,30.27,NNW,343,6.0,14.0,65,0.00,,,0.00,,2013-03-02 06:11:00,
2013-03-02 00:21:00,40.0,30.0,30.27,NNW,340,9.0,16.0,66,0.00,,,0.00,,2013-03-02 06:21:00,
2013-03-02 00:31:00,39.0,29.0,30.28,NNW,339,7.0,12.0,66,0.00,,,0.00,,2013-03-02 06:31:00,
2013-03-02 00:41:00,39.0,29.0,30.28,NNW,339,7.0,12.0,66,0.00,,,0.00,,2013-03-02 06:41:00,
2013-03-02 00:51:00,39.0,29.0,30.28,NNW,346,6.0,12.0,67,0.00,,,0.00,,2013-03-02 06:51:00,
2013-03-02 01:01:00,38.0,28.0,30.29,NNW,338,9.0,16.0,66,0.00,,,0.00,,2013-03-02 07:01:00,
2013-03-02 01:11:00,38.0,27.0,30.29,NNW,345,9.0,16.0,65,0.00,,,0.00,,2013-03-02 07:11:00,
2013-03-02 01:21:00,38.0,27.0,30.29,NNW,345,9.0,16.0,65,0.00,,,0.00,,2013-03-02 07:21:00,
2013-03-02 01:32:00,38.0,28.0,30.30,NNW,335,6.0,14.0,66,0.00,,,0.00,,2013-03-02 07:32:00,
2013-03-02 01:42:00,38.0,28.0,30.30,NNW,335,6.0,14.0,66,0.00,,,0.00,,2013-03-02 07:42:00,
2013-03-02 01:51:00,38.0,28.0,30.30,North,355,7.0,16.0,67,0.00,,,0.00,,2013-03-02 07:51:00,
2013-03-02 02:01:00,37.0,27.0,30.30,NNW,331,8.0,15.0,66,0.00,,,0.00,,2013-03-02 08:01:00,
2013-03-02 02:11:00,37.0,27.0,30.30,NNW,331,8.0,15.0,66,0.00,,,0.00,,2013-03-02 08:11:00,
2013-03-02 02:21:00,37.0,27.0,30.30,NW,326,12.0,17.0,66,0.00,,,0.00,,2013-03-02 08:21:00,
2013-03-02 02:32:00,37.0,27.0,30.30,NNW,342,7.0,12.0,67,0.00,,,0.00,,2013-03-02 08:32:00,
2013-03-02 02:42:00,37.0,27.0,30.30,NNW,342,7.0,12.0,67,0.00,,,0.00,,2013-03-02 08:42:00,
2013-03-02 02:52:00,37.0,27.0,30.30,NNW,342,7.0,12.0,67,0.00,,,0.00,,2013-03-02 08:52:00,
2013-03-02 03:01:00,36.0,28.0,30.30,NW,321,6.0,13.0,71,0.00,,,0.00,,2013-03-02 09:01:00,
2013-03-02 03:11:00,36.0,28.0,30.30,NNW,332,6.0,12.0,72,0.00,,,0.00,,2013-03-02 09:11:00,
2013-03-02 03:21:00,36.0,28.0,30.30,NNW,332,6.0,12.0,72,0.00,,,0.00,,2013-03-02 09:21:00,
2013-03-02 03:32:00,35.0,27.0,30.29,NNW,327,9.0,14.0,71,0.00,,,0.00,,2013-03-02 09:32:00,
2013-03-02 03:42:00,35.0,27.0,30.29,NNW,327,9.0,14.0,71,0.00,,,0.00,,2013-03-02 09:42:00,
2013-03-02 03:51:00,35.0,27.0,30.29,NW,319,9.0,13.0,71,0.00,,,0.00,,2013-03-02 09:51:00,
2013-03-02 04:01:00,35.0,26.0,30.30,NW,317,9.0,14.0,70,0.00,,,0.00,,2013-03-02 10:01:00,
2013-03-02 04:15:00,35.0,26.0,30.30,NW,317,9.0,14.0,70,0.00,,,0.00,,2013-03-02 10:15:00,
2013-03-02 04:22:00,35.0,27.0,30.31,NNW,327,10.0,16.0,71,0.00,,,0.00,,2013-03-02 10:22:00,
2013-03-02 04:32:00,34.0,25.0,30.31,NW,321,9.0,17.0,70,0.00,,,0.00,,2013-03-02 10:32:00,
2013-03-02 04:42:00,34.0,25.0,30.31,NW,321,9.0,17.0,70,0.00,,,0.00,,2013-03-02 10:42:00,
2013-03-02 04:51:00,34.0,26.0,30.31,NNW,338,6.0,18.0,71,0.00,,,0.00,,2013-03-02 10:51:00,
2013-03-02 05:01:00,34.0,25.0,30.32,NW,312,8.0,15.0,70,0.00,,,0.00,,2013-03-02 11:01:00,
2013-03-02 05:11:00,34.0,25.0,30.32,NW,312,8.0,15.0,70,0.00,,,0.00,,2013-03-02 11:11:00,
2013-03-02 05:21:00,34.0,25.0,30.32,NW,312,8.0,15.0,70,0.00,,,0.00,,2013-03-02 11:21:00,
2013-03-02 05:32:00,33.0,25.0,30.32,NW,322,7.0,14.0,71,0.00,,,0.00,,2013-03-02 11:32:00,
2013-03-02 05:42:00,33.0,25.0,30.32,NW,322,7.0,14.0,71,0.00,,,0.00,,2013-03-02 11:42:00,
2013-03-02 05:52:00,33.0,25.0,30.32,NW,320,10.0,17.0,71,0.00,,,0.00,,2013-03-02 11:52:00,
2013-03-02 06:02:00,33.0,25.0,30.34,NNW,332,5.0,12.0,73,0.00,,,0.00,,2013-03-02 12:02:00,
2013-03-02 06:11:00,33.0,25.0,30.34,NNW,332,5.0,12.0,73,0.00,,,0.00,,2013-03-02 12:11:00,
2013-03-02 06:21:00,33.0,25.0,30.34,NW,319,7.0,12.0,73,0.00,,,0.00,,2013-03-02 12:21:00,
2013-03-02 06:33:00,32.0,24.0,30.34,NNW,329,7.0,12.0,73,0.00,,,0.00,,2013-03-02 12:33:00,
2013-03-02 06:43:00,32.0,24.0,30.34,NNW,329,7.0,12.0,73,0.00,,,0.00,,2013-03-02 12:43:00,
2013-03-02 06:53:00,32.0,24.0,30.35,NW,320,7.0,14.0,73,0.00,,,0.00,,2013-03-02 12:53:00,
2013-03-02 07:01:00,32.0,24.0,30.36,NNW,334,9.0,14.0,72,0.00,,,0.00,,2013-03-02 13:01:00,
2013-03-02 07:11:00,32.0,24.0,30.36,NNW,334,9.0,14.0,72,0.00,,,0.00,,2013-03-02 13:11:00,
2013-03-02 07:22:00,32.0,24.0,30.36,NNW,334,9.0,14.0,72,0.00,,,0.00,,2013-03-02 13:22:00,
2013-03-02 07:32:00,31.0,22.0,30.37,NNW,348,8.0,13.0,68,0.00,,,0.00,,2013-03-02 13:32:00,
2013-03-02 07:41:00,31.0,22.0,30.37,NNW,348,8.0,13.0,68,0.00,,,0.00,,2013-03-02 13:41:00,
2013-03-02 07:52:00,32.0,23.0,30.38,NNW,348,6.0,14.0,68,0.00,,,0.00,,2013-03-02 13:52:00,
2013-03-02 08:01:00,32.0,21.0,30.39,NNW,348,8.0,16.0,64,0.00,,,0.00,,2013-03-02 14:01:00,
2013-03-02 08:11:00,32.0,21.0,30.39,NNW,348,8.0,16.0,64,0.00,,,0.00,,2013-03-02 14:11:00,
2013-03-02 08:21:00,32.0,21.0,30.39,NNW,348,8.0,16.0,64,0.00,,,0.00,,2013-03-02 14:21:00,
2013-03-02 08:32:00,33.0,23.0,30.40,NW,320,9.0,13.0,65,0.00,,,0.00,,2013-03-02 14:32:00,
2013-03-02 08:42:00,33.0,23.0,30.40,NW,320,9.0,13.0,65,0.00,,,0.00,,2013-03-02 14:42:00,
2013-03-02 08:52:00,34.0,23.0,30.41,NW,322,9.0,14.0,65,0.00,,,0.00,,2013-03-02 14:52:00,
2013-03-02 09:02:00,35.0,23.0,30.42,NNW,333,9.0,13.0,61,0.00,,,0.00,,2013-03-02 15:02:00,
2013-03-02 09:11:00,35.0,23.0,30.42,NNW,333,9.0,13.0,61,0.00,,,0.00,,2013-03-02 15:11:00,
2013-03-02 09:21:00,35.0,22.0,30.41,North,355,10.0,18.0,58,0.00,,,0.00,,2013-03-02 15:21:00,
2013-03-02 09:32:00,36.0,23.0,30.41,NNW,329,8.0,17.0,58,0.00,,,0.00,,2013-03-02 15:32:00,
2013-03-02 09:42:00,36.0,23.0,30.41,NNW,329,8.0,17.0,58,0.00,,,0.00,,2013-03-02 15:42:00,
2013-03-02 09:52:00,36.0,22.0,30.41,North,353,10.0,17.0,56,0.00,,,0.00,,2013-03-02 15:52:00,
2013-03-02 10:01:00,37.0,22.0,30.41,NNW,348,10.0,17.0,54,0.00,,,0.00,,2013-03-02 16:01:00,
2013-03-02 10:11:00,37.0,22.0,30.41,NNW,348,10.0,17.0,54,0.00,,,0.00,,2013-03-02 16:11:00,
2013-03-02 10:21:00,37.0,22.0,30.41,NNW,332,9.0,18.0,54,0.00,,,0.00,,2013-03-02 16:21:00,
2013-03-02 10:32:00,38.0,23.0,30.40,NNW,330,9.0,16.0,54,0.00,,,0.00,,2013-03-02 16:32:00,
2013-03-02 10:42:00,38.0,23.0,30.40,NNW,330,9.0,16.0,54,0.00,,,0.00,,2013-03-02 16:42:00,
2013-03-02 10:51:00,38.0,23.0,30.40,NNW,327,12.0,16.0,54,0.00,,,0.00,,2013-03-02 16:51:00,
2013-03-02 11:01:00,38.0,22.0,30.40,NNW,327,7.0,16.0,52,0.00,,,0.00,,2013-03-02 17:01:00,
2013-03-02 11:11:00,38.0,22.0,30.40,NNW,327,7.0,16.0,52,0.00,,,0.00,,2013-03-02 17:11:00,
2013-03-02 11:21:00,39.0,22.0,30.40,NNW,336,9.0,16.0,51,0.00,,,0.00,,2013-03-02 17:21:00,
2013-03-02 11:32:00,40.0,22.0,30.40,NNW,346,10.0,16.0,48,0.00,,,0.00,,2013-03-02 17:32:00,
2013-03-02 11:42:00,40.0,22.0,30.40,NNW,346,10.0,16.0,48,0.00,,,0.00,,2013-03-02 17:42:00,
2013-03-02 11:52:00,41.0,22.0,30.39,NW,306,10.0,15.0,47,0.00,,,0.00,,2013-03-02 17:52:00,
2013-03-02 12:02:00,42.0,23.0,30.38,NW,320,5.0,16.0,47,0.00,,,0.00,,2013-03-02 18:02:00,
2013-03-02 12:11:00,42.0,23.0,30.38,NW,320,5.0,16.0,47,0.00,,,0.00,,2013-03-02 18:11:00,
2013-03-02 12:22:00,43.0,24.0,30.37,North,349,6.0,14.0,46,0.00,,,0.00,,2013-03-02 18:22:00,
2013-03-02 12:32:00,44.0,22.0,30.36,WNW,301,11.0,16.0,41,0.00,,,0.00,,2013-03-02 18:32:00,
2013-03-02 12:42:00,44.0,22.0,30.36,WNW,301,11.0,16.0,41,0.00,,,0.00,,2013-03-02 18:42:00,
2013-03-02 12:52:00,44.0,21.0,30.36,West,277,6.0,14.0,39,0.00,,,0.00,,2013-03-02 18:52:00,
2013-03-02 13:01:00,45.0,23.0,30.35,NW,318,9.0,17.0,41,0.00,,,0.00,,2013-03-02 19:01:00,
2013-03-02 13:11:00,45.0,23.0,30.35,NW,318,9.0,17.0,41,0.00,,,0.00,,2013-03-02 19:11:00,
2013-03-02 13:21:00,47.0,22.0,30.34,NW,307,8.0,14.0,37,0.00,,,0.00,,2013-03-02 19:21:00,
2013-03-02 13:32:00,47.0,22.0,30.33,NNW,334,10.0,16.0,37,0.00,,,0.00,,2013-03-02 19:32:00,
2013-03-02 13:42:00,47.0,22.0,30.33,NNW,334,10.0,16.0,37,0.00,,,0.00,,2013-03-02 19:42:00,
2013-03-02 13:52:00,48.0,24.0,30.32,NW,313,6.0,16.0,38,0.00,,,0.00,,2013-03-02 19:52:00,
2013-03-02 14:01:00,49.0,22.0,30.31,NW,314,9.0,15.0,34,0.00,,,0.00,,2013-03-02 20:01:00,
2013-03-02 14:11:00,49.0,22.0,30.31,NW,314,9.0,15.0,34,0.00,,,0.00,,2013-03-02 20:11:00,
2013-03-02 14:22:00,49.0,23.0,30.31,NNW,342,9.0,17.0,35,0.00,,,0.00,,2013-03-02 20:22:00,
2013-03-02 14:32:00,50.0,23.0,30.30,NNW,334,8.0,13.0,35,0.00,,,0.00,,2013-03-02 20:32:00,
2013-03-02 14:42:00,50.0,23.0,30.30,NNW,334,8.0,13.0,35,0.00,,,0.00,,2013-03-02 20:42:00,
2013-03-02 14:52:00,49.0,21.0,30.29,NNW,329,8.0,14.0,33,0.00,,,0.00,,2013-03-02 20:52:00,
2013-03-02 15:02:00,51.0,22.0,30.29,North,358,7.0,14.0,32,0.00,,,0.00,,2013-03-02 21:02:00,
2013-03-02 15:11:00,51.0,22.0,30.29,North,358,7.0,14.0,32,0.00,,,0.00,,2013-03-02 21:11:00,
2013-03-02 15:22:00,51.0,24.0,30.29,NW,323,7.0,17.0,34,0.00,,,0.00,,2013-03-02 21:22:00,
2013-03-02 15:32:00,50.0,22.0,30.28,WNW,296,4.0,14.0,33,0.00,,,0.00,,2013-03-02 21:32:00,
2013-03-02 15:42:00,50.0,22.0,30.28,WNW,296,4.0,14.0,33,0.00,,,0.00,,2013-03-02 21:42:00,
2013-03-02 15:52:00,51.0,23.0,30.28,West,264,9.0,14.0,33,0.00,,,0.00,,2013-03-02 21:52:00,
2013-03-02 16:02:00,52.0,23.0,30.28,NNW,335,7.0,12.0,32,0.00,,,0.00,,2013-03-02 22:02:00,
2013-03-02 16:11:00,52.0,23.0,30.28,NNW,335,7.0,12.0,32,0.00,,,0.00,,2013-03-02 22:11:00,
2013-03-02 16:21:00,52.0,25.0,30.27,NNW,327,7.0,13.0,34,0.00,,,0.00,,2013-03-02 22:21:00,
2013-03-02 16:32:00,52.0,24.0,30.27,WNW,294,6.0,9.0,33,0.00,,,0.00,,2013-03-02 22:32:00,
2013-03-02 16:42:00,52.0,24.0,30.27,WNW,294,6.0,9.0,33,0.00,,,0.00,,2013-03-02 22:42:00,
2013-03-02 16:51:00,52.0,25.0,30.27,NW,306,5.0,14.0,34,0.00,,,0.00,,2013-03-02 22:51:00,
2013-03-02 17:01:00,52.0,25.0,30.26,NNW,339,7.0,12.0,34,0.00,,,0.00,,2013-03-02 23:01:00,
2013-03-02 17:11:00,51.0,24.0,30.27,NW,318,6.0,12.0,35,0.00,,,0.00,,2013-03-02 23:11:00,
2013-03-02 17:21:00,51.0,24.0,30.27,NW,318,6.0,12.0,35,0.00,,,0.00,,2013-03-02 23:21:00,
2013-03-02 17:32:00,51.0,24.0,30.26,North,357,5.0,12.0,35,0.00,,,0.00,,2013-03-02 23:32:00,
2013-03-02 17:42:00,51.0,24.0,30.26,North,357,5.0,12.0,35,0.00,,,0.00,,2013-03-02 23:42:00,
2013-03-02 17:52:00,51.0,25.0,30.26,NNW,336,4.0,8.0,36,0.00,,,0.00,,2013-03-02 23:52:00,
2013-03-02 18:02:00,51.0,26.0,30.26,NW,317,3.0,9.0,37,0.00,,,0.00,,2013-03-03 00:02:00,
2013-03-02 18:11:00,51.0,26.0,30.26,NW,317,3.0,9.0,37,0.00,,,0.00,,2013-03-03 00:11:00,
2013-03-02 18:22:00,50.0,25.0,30.26,North,357,3.0,5.0,37,0.00,,,0.00,,2013-03-03 00:22:00,
2013-03-02 18:32:00,49.0,25.0,30.26,North,350,2.0,3.0,39,0.00,,,0.00,,2013-03-03 00:32:00,
2013-03-02 18:42:00,49.0,25.0,30.26,North,350,2.0,3.0,39,0.00,,,0.00,,2013-03-03 00:42:00,
2013-03-02 18:52:00,48.0,25.0,30.26,NNW,342,1.0,3.0,41,0.00,,,0.00,,2013-03-03 00:52:00,
2013-03-02 19:01:00,48.0,27.0,30.26,NNW,342,0.0,1.0,44,0.00,,,0.00,,2013-03-03 01:01:00,
2013-03-02 19:11:00,48.0,27.0,30.26,NNW,342,0.0,1.0,44,0.00,,,0.00,,2013-03-03 01:11:00,
2013-03-02 19:21:00,46.0,26.0,30.26,NNW,342,0.0,0.0,45,0.00,,,0.00,,2013-03-03 01:21:00,
2013-03-02 19:32:00,45.0,26.0,30.26,NNW,342,0.0,0.0,47,0.00,,,0.00,,2013-03-03 01:32:00,
2013-03-02 19:41:00,45.0,26.0,30.26,NNW,342,0.0,0.0,47,0.00,,,0.00,,2013-03-03 01:41:00,
2013-03-02 19:52:00,45.0,26.0,30.26,NNW,342,0.0,0.0,47,0.00,,,0.00,,2013-03-03 01:52:00,
2013-03-02 20:01:00,44.0,28.0,30.26,North,5,0.0,1.0,54,0.00,,,0.00,,2013-03-03 02:01:00,
2013-03-02 20:11:00,44.0,27.0,30.26,North,5,0.0,0.0,51,0.00,,,0.00,,2013-03-03 02:11:00,
2013-03-02 20:21:00,44.0,27.0,30.26,North,5,0.0,0.0,51,0.00,,,0.00,,2013-03-03 02:21:00,
2013-03-02 20:32:00,42.0,27.0,30.25,North,5,0.0,1.0,55,0.00,,,0.00,,2013-03-03 02:32:00,
2013-03-02 20:42:00,42.0,27.0,30.25,North,5,0.0,1.0,55,0.00,,,0.00,,2013-03-03 02:42:00,
2013-03-02 20:52:00,43.0,28.0,30.25,North,5,0.0,0.0,54,0.00,,,0.00,,2013-03-03 02:52:00,
2013-03-02 21:01:00,42.0,27.0,30.25,North,5,0.0,1.0,56,0.00,,,0.00,,2013-03-03 03:01:00,
2013-03-02 21:11:00,42.0,27.0,30.25,North,5,0.0,1.0,56,0.00,,,0.00,,2013-03-03 03:11:00,
2013-03-02 21:21:00,41.0,28.0,30.26,North,5,0.0,1.0,60,0.00,,,0.00,,2013-03-03 03:21:00,
2013-03-02 21:31:00,42.0,29.0,30.25,North,5,0.0,2.0,59,0.00,,,0.00,,2013-03-03 03:31:00,
2013-03-02 21:41:00,42.0,29.0,30.25,North,5,0.0,2.0,59,0.00,,,0.00,,2013-03-03 03:41:00,
2013-03-02 21:51:00,42.0,29.0,30.25,North,5,0.0,2.0,59,0.00,,,0.00,,2013-03-03 03:51:00,
2013-03-02 22:01:00,42.0,27.0,30.25,ENE,69,1.0,3.0,56,0.00,,,0.00,,2013-03-03 04:01:00,
2013-03-02 22:11:00,42.0,27.0,30.25,ENE,69,1.0,3.0,56,0.00,,,0.00,,2013-03-03 04:11:00,
2013-03-02 22:21:00,41.0,27.0,30.25,ENE,71,0.0,2.0,58,0.00,,,0.00,,2013-03-03 04:21:00,
2013-03-02 22:32:00,41.0,29.0,30.25,ENE,71,1.0,1.0,61,0.00,,,0.00,,2013-03-03 04:32:00,
2013-03-02 22:41:00,41.0,29.0,30.25,ENE,71,1.0,1.0,61,0.00,,,0.00,,2013-03-03 04:41:00,
2013-03-02 22:51:00,41.0,27.0,30.25,ENE,71,0.0,1.0,57,0.00,,,0.00,,2013-03-03 04:51:00,
2013-03-02 23:02:00,40.0,29.0,30.25,ENE,71,0.0,1.0,64,0.00,,,0.00,,2013-03-03 05:02:00,
2013-03-02 23:11:00,40.0,29.0,30.25,ENE,71,0.0,1.0,64,0.00,,,0.00,,2013-03-03 05:11:00,
2013-03-02 23:22:00,40.0,28.0,30.25,ENE,71,0.0,1.0,63,0.00,,,0.00,,2013-03-03 05:22:00,
2013-03-02 23:32:00,39.0,30.0,30.24,ENE,71,1.0,2.0,69,0.00,,,0.00,,2013-03-03 05:32:00,
2013-03-02 23:42:00,39.0,30.0,30.24,ENE,71,1.0,2.0,69,0.00,,,0.00,,2013-03-03 05:42:00,
2013-03-02 23:52:00,39.0,30.0,30.24,ENE,71,1.0,2.0,69,0.00,,,0.00,,2013-03-03 05:52:00,